WX4MMM Weather Reports


time (UTC)temp
F
wind
direction
speed
knots
gust
knots
rain 1hr
in
rain 24hr
in
rain mn
in
humidity
%
barometer
mb
20260906000003 75 314 0.0 0.0 0.00 0.43 0.27 98 1010.5
20260905235502 75 314 0.0 0.0 0.00 0.43 0.27 98 1010.4
20260905234503 75 314 0.0 0.0 0.00 0.43 0.27 98 1010.5
20260905234003 75 314 0.0 0.0 0.00 0.43 0.27 98 1010.5
20260905233504 75 51 0.0 0.0 0.00 0.43 0.27 98 1010.4
20260905233003 75 223 0.0 0.9 0.00 0.43 0.27 98 1010.4
20260905232503 75 278 0.0 0.0 0.00 0.43 0.27 98 1010.4
20260905232003 75 287 0.0 0.0 0.00 0.43 0.27 98 1010.4
20260905231502 75 53 0.0 0.9 0.00 0.43 0.27 98 1010.3
20260905231003 75 108 0.0 0.9 0.00 0.43 0.27 98 1010.2
20260905230503 75 110 0.0 0.0 0.00 0.43 0.27 98 1010.0
20260905230003 75 110 0.0 0.9 0.00 0.43 0.27 98 1009.9
20260905225503 75 56 0.0 0.9 0.00 0.43 0.27 98 1009.8
20260905225003 75 25 0.0 0.9 0.00 0.43 0.27 98 1009.8
20260905224502 75 240 0.0 0.0 0.00 0.43 0.27 98 1009.7
20260905224003 75 240 0.0 0.0 0.00 0.43 0.27 98 1009.8
20260905223503 75 223 0.0 0.0 0.00 0.43 0.27 98 1009.9
20260905223003 75 57 0.0 0.0 0.00 0.43 0.27 98 1010.0
20260905222504 75 40 0.0 0.0 0.00 0.43 0.27 98 1010.0
20260905222002 75 37 0.9 0.9 0.00 0.43 0.27 98 1010.0
20260905221503 75 165 0.0 0.0 0.00 0.43 0.27 98 1010.0
20260905221003 75 165 0.0 0.9 0.00 0.43 0.27 98 1010.0
20260905220504 74 153 0.0 0.0 0.00 0.43 0.27 98 1010.1
20260905215503 74 158 0.0 0.0 0.00 0.43 0.27 98 1010.0
20260905215003 74 158 0.0 0.0 0.00 0.43 0.27 98 1010.0
20260905214503 74 61 0.0 0.9 0.00 0.43 0.27 98 1010.0
20260905214003 74 35 0.0 0.9 0.00 0.43 0.27 98 1010.0
20260905213502 74 101 0.0 0.0 0.00 0.43 0.27 98 1009.8
20260905213003 74 101 0.0 0.0 0.00 0.43 0.27 98 1009.6
20260905212003 74 101 0.0 0.0 0.00 0.43 0.27 98 1009.7
20260905211503 74 101 0.0 0.9 0.00 0.43 0.27 98 1009.6
20260905211003 73 347 0.0 0.9 0.01 0.43 0.27 98 1009.5
20260905210503 73 195 0.0 0.0 0.01 0.43 0.27 98 1009.5
20260905210003 73 154 0.9 0.9 0.01 0.43 0.27 98 1009.5
20260905205504 73 320 0.9 1.7 0.02 0.43 0.27 98 1009.7
20260905205004 73 279 0.9 0.9 0.02 0.43 0.27 98 1009.8
20260905204503 73 57 0.0 0.9 0.02 0.43 0.27 98 1009.9
20260905204003 73 59 0.0 0.9 0.03 0.43 0.27 98 1009.9
20260905203504 73 46 0.9 1.7 0.08 0.43 0.27 98 1009.8
20260905203003 73 158 0.0 0.9 0.09 0.43 0.27 98 1009.6
20260905202502 72 150 0.0 0.9 0.12 0.43 0.27 98 1009.4
20260905202003 72 149 0.0 0.9 0.13 0.42 0.26 97 1009.5
20260905201503 72 19 0.0 1.7 0.14 0.42 0.26 97 1009.5
20260905201003 72 27 0.9 1.7 0.10 0.42 0.26 97 1009.8
20260905200003 72 302 0.9 0.9 0.25 0.41 0.25 96 1010.1
20260905195503 72 353 0.0 0.9 0.25 0.41 0.25 96 1010.2
20260905195004 72 93 0.0 0.9 0.25 0.41 0.25 96 1010.3
20260905194503 72 72 0.0 0.0 0.25 0.41 0.25 95 1010.4
20260905193503 72 56 0.9 1.7 0.19 0.35 0.19 93 1010.8
20260905193003 73 288 0.9 2.6 0.18 0.34 0.18 93 1011.1
20260905192502 74 349 1.7 2.6 0.31 0.31 0.31 93 1011.4
20260905192003 75 306 2.6 7.0 0.30 0.30 0.30 92 1011.4
20260905191504 78 178 1.7 2.6 0.29 0.29 0.29 90 1010.9
20260905190503 88 353 2.6 7.0 0.05 0.05 0.05 74 1011.2
20260905185502 95 307 1.7 6.1 0.00 0.00 0.00 55 1009.8
20260905185003 96 328 0.0 1.7 0.00 0.00 0.00 49 1009.2
20260905184503 96 39 0.9 0.9 0.00 0.00 0.00 48 1008.9
20260905184003 96 50 0.9 1.7 0.00 0.00 0.00 51 1009.1
20260905183503 96 226 0.0 2.6 0.00 0.00 0.00 51 1009.1
20260905183003 96 222 1.7 2.6 0.00 0.00 0.00 50 1009.0
20260905182003 96 3 0.9 1.7 0.00 0.00 0.00 50 1009.2
20260905180503 95 224 0.9 2.6 0.00 0.00 0.00 52 1009.7
20260905180003 95 341 0.9 1.7 0.00 0.00 0.00 51 1009.8
20260905175503 96 0 0.9 1.7 0.00 0.00 0.00 52 1009.9
20260905175003 95 310 0.9 1.7 0.00 0.00 0.00 52 1010.1
20260905174503 95 92 0.9 1.7 0.00 0.00 0.00 53 1010.3
20260905174003 95 42 1.7 2.6 0.00 0.00 0.00 53 1010.4
20260905173502 95 330 0.9 1.7 0.00 0.00 0.00 52 1010.6
20260905172503 94 92 0.9 1.7 0.00 0.00 0.00 55 1010.8
20260905172003 93 222 0.9 1.7 0.00 0.00 0.00 55 1010.9
20260905171503 93 334 0.9 1.7 0.00 0.00 0.00 57 1010.9
20260905171004 93 310 0.9 2.6 0.00 0.00 0.00 57 1011.0
20260905170503 94 258 0.9 2.6 0.00 0.00 0.00 55 1011.0
20260905170003 94 20 0.9 4.3 0.00 0.00 0.00 54 1011.0
20260905165503 95 314 0.9 2.6 0.00 0.00 0.00 56 1011.0
20260905165003 95 279 0.9 2.6 0.00 0.00 0.00 53 1011.0
20260905164503 95 241 0.9 2.6 0.00 0.00 0.00 52 1011.1
20260905164003 94 304 0.9 1.7 0.00 0.00 0.00 54 1011.2
20260905163503 94 274 0.9 2.6 0.00 0.00 0.00 52 1011.2
20260905163003 94 16 1.7 2.6 0.00 0.00 0.00 53 1011.2
20260905162004 95 25 0.9 1.7 0.00 0.00 0.00 53 1011.3
20260905161503 94 349 0.9 1.7 0.00 0.00 0.00 53 1011.4
20260905161003 94 340 0.0 1.7 0.00 0.00 0.00 54 1011.4
20260905160503 93 334 0.9 2.6 0.00 0.00 0.00 55 1011.5
20260905155003 93 145 0.9 4.3 0.00 0.00 0.00 57 1011.8
20260905154003 92 43 0.9 1.7 0.00 0.00 0.00 59 1011.9
20260905153504 91 331 0.9 1.7 0.00 0.00 0.00 59 1011.9
20260905153003 91 54 0.9 1.7 0.00 0.00 0.00 61 1012.0
20260905152003 90 53 0.9 2.6 0.00 0.00 0.00 61 1012.1
20260905150503 88 158 1.7 2.6 0.00 0.00 0.00 66 1012.1
20260905150003 88 94 1.7 2.6 0.00 0.00 0.00 66 1012.0
20260905145503 88 179 0.9 5.2 0.00 0.00 0.00 65 1012.1
20260905145005 88 66 1.7 2.6 0.00 0.00 0.00 67 1012.2
20260905144503 87 346 0.9 1.7 0.00 0.00 0.00 68 1012.2
20260905144003 87 327 0.9 4.3 0.00 0.00 0.00 69 1012.3
20260905143003 86 44 0.9 1.7 0.00 0.00 0.00 70 1012.2
20260905142503 86 18 0.9 1.7 0.00 0.00 0.00 73 1012.1
20260905141504 85 134 0.9 2.6 0.00 0.00 0.00 72 1012.0
20260905141004 85 271 0.9 2.6 0.00 0.00 0.00 72 1012.0
20260905140503 84 1 1.7 2.6 0.00 0.00 0.00 73 1012.0
20260905140002 84 148 0.9 1.7 0.00 0.00 0.00 74 1012.0
20260905135504 83 88 0.0 0.9 0.00 0.00 0.00 75 1012.0
20260905135003 82 72 0.9 0.9 0.00 0.00 0.00 78 1012.1
20260905134504 82 123 1.7 1.7 0.00 0.00 0.00 76 1012.1
20260905134003 82 38 1.7 2.6 0.00 0.00 0.00 79 1012.1
20260905133503 81 116 0.9 2.6 0.00 0.00 0.00 79 1012.0
20260905133003 80 134 0.9 2.6 0.00 0.00 0.00 80 1012.1
20260905132503 80 344 0.9 0.9 0.00 0.00 0.00 82 1012.0
20260905131503 79 240 0.9 0.9 0.00 0.00 0.00 84 1012.0
20260905131003 79 310 0.9 1.7 0.00 0.00 0.00 85 1012.1
20260905130503 79 218 0.9 2.6 0.00 0.00 0.00 85 1012.2
20260905130003 78 156 0.9 1.7 0.00 0.00 0.00 86 1012.1
20260905125504 78 57 0.0 1.7 0.00 0.00 0.00 87 1012.3
20260905125004 77 100 0.9 1.7 0.00 0.00 0.00 87 1012.2
20260905124003 76 298 0.9 1.7 0.00 0.00 0.00 89 1012.2
20260905123003 75 185 0.0 1.7 0.00 0.00 0.00 92 1012.3
20260905122004 74 36 0.0 0.9 0.00 0.00 0.00 94 1012.3
20260905121503 73 20 0.9 0.9 0.00 0.00 0.00 94 1012.3
20260905120503 73 16 0.0 0.9 0.00 0.00 0.00 95 1012.3
20260905120003 73 106 0.0 0.0 0.00 0.00 0.00 95 1012.2
20260905115503 72 106 0.0 0.0 0.00 0.00 0.00 96 1012.1
20260905115003 72 106 0.0 0.0 0.00 0.00 0.00 96 1012.1
20260905114505 72 159 0.0 0.9 0.00 0.00 0.00 96 1012.0
20260905114003 72 170 0.0 0.9 0.00 0.00 0.00 96 1012.0
20260905113503 72 261 0.0 0.0 0.00 0.00 0.00 96 1012.1
20260905112502 72 324 0.0 0.0 0.00 0.00 0.00 96 1011.9
20260905112004 72 324 0.0 0.9 0.00 0.00 0.00 96 1011.9
20260905111003 72 183 0.0 0.0 0.00 0.00 0.00 96 1011.7
20260905105503 72 36 0.0 0.0 0.00 0.00 0.00 95 1011.7
20260905105004 72 36 0.0 0.0 0.00 0.00 0.00 95 1011.6
20260905104503 72 36 0.0 0.0 0.00 0.00 0.00 95 1011.6
20260905104003 72 36 0.0 0.9 0.00 0.00 0.00 95 1011.6
20260905103504 72 229 0.9 1.7 0.00 0.00 0.00 95 1011.6
20260905103003 72 9 0.9 1.7 0.00 0.00 0.00 95 1011.5
20260905102003 72 75 0.0 0.0 0.00 0.00 0.00 95 1011.5
20260905101004 72 33 0.0 0.0 0.00 0.00 0.00 94 1011.4
20260905100504 73 33 0.0 0.0 0.00 0.00 0.00 94 1011.4
20260905100002 73 33 0.0 0.9 0.00 0.00 0.00 94 1011.3
20260905095504 73 76 0.0 0.0 0.00 0.00 0.00 93 1011.3
20260905095003 73 46 0.0 0.0 0.00 0.00 0.00 93 1011.4
20260905094005 73 9 0.0 0.0 0.00 0.00 0.00 93 1011.4
20260905093503 73 9 0.0 0.0 0.00 0.00 0.00 92 1011.4
20260905092504 73 9 0.0 0.0 0.00 0.00 0.00 92 1011.4
20260905092003 73 9 0.0 0.0 0.00 0.00 0.00 91 1011.4
20260905091502 74 9 0.0 0.0 0.00 0.00 0.00 91 1011.4
20260905091005 74 9 0.0 0.0 0.00 0.00 0.00 91 1011.4
20260905090504 74 9 0.0 0.0 0.00 0.00 0.00 91 1011.6
20260905090003 74 9 0.0 0.0 0.00 0.00 0.00 90 1011.6
20260905085504 74 9 0.0 0.0 0.00 0.00 0.00 90 1011.6
20260905085003 74 9 0.0 0.0 0.00 0.00 0.00 90 1011.7
20260905084503 74 9 0.0 0.0 0.00 0.00 0.00 89 1011.7
20260905084004 74 9 0.0 0.0 0.00 0.00 0.00 89 1011.7
20260905083503 74 9 0.0 0.9 0.00 0.00 0.00 89 1011.8
20260905083003 74 355 0.0 0.9 0.00 0.00 0.00 89 1011.8
20260905082503 74 291 0.0 0.0 0.00 0.00 0.00 89 1011.8
20260905082003 74 291 0.0 0.0 0.00 0.00 0.00 89 1011.9
20260905081005 75 291 0.0 0.0 0.00 0.00 0.00 88 1012.0
20260905080503 75 291 0.0 0.0 0.00 0.00 0.00 88 1012.1
20260905080003 75 291 0.0 0.0 0.00 0.00 0.00 88 1012.1
20260905075003 75 286 0.0 0.0 0.00 0.00 0.00 87 1012.2
20260905074003 75 286 0.0 0.9 0.00 0.00 0.00 86 1012.2
20260905073503 76 15 0.0 0.9 0.00 0.00 0.00 86 1012.3
20260905073003 76 208 0.0 0.9 0.00 0.00 0.00 86 1012.3
20260905072503 76 299 0.0 0.9 0.00 0.00 0.00 85 1012.3
20260905071503 76 178 0.0 0.0 0.00 0.00 0.00 85 1012.4
20260905070503 76 180 0.9 1.7 0.00 0.00 0.00 85 1012.4
20260905070005 76 309 0.0 0.0 0.00 0.00 0.00 85 1012.5
20260905065503 76 309 0.0 0.0 0.00 0.00 0.00 84 1012.5
20260905065003 76 309 0.0 0.0 0.00 0.00 0.00 84 1012.7
20260905064503 76 168 0.0 0.0 0.00 0.00 0.00 84 1012.8
20260905064003 76 168 0.0 0.0 0.00 0.00 0.00 84 1012.8
20260905063503 76 168 0.0 0.0 0.00 0.00 0.00 83 1012.8
20260905063004 77 168 0.0 0.0 0.00 0.00 0.00 83 1012.9
20260905062503 77 168 0.0 0.9 0.00 0.00 0.00 83 1013.0
20260905062004 77 152 0.0 0.9 0.00 0.00 0.00 83 1013.0
20260905061504 77 181 0.0 0.9 0.00 0.00 0.00 83 1013.1
20260905061004 77 165 0.0 0.9 0.00 0.00 0.00 83 1013.2
20260905060503 77 162 0.0 0.0 0.00 0.00 0.00 83 1013.2
20260905055003 77 164 0.0 0.0 0.00 0.00 0.00 83 1013.5
20260905054503 77 166 0.0 0.9 0.00 0.00 0.00 83 1013.6
20260905053503 77 200 0.0 0.9 0.00 0.00 0.00 83 1013.6
20260905053004 77 338 0.0 0.0 0.00 0.00 0.00 83 1013.7
20260905052503 77 338 0.0 0.9 0.00 0.00 0.00 83 1013.8
20260905052003 77 152 0.0 0.0 0.00 0.00 0.00 83 1013.9
20260905051503 78 152 0.0 0.0 0.00 0.00 0.00 82 1013.9
20260905051004 78 152 0.9 0.9 0.00 0.00 0.00 82 1014.0
20260905050004 78 130 0.0 0.9 0.00 0.00 0.00 81 1014.2
20260905045504 78 102 0.0 0.9 0.00 0.00 0.00 81 1014.2
20260905045003 78 288 0.0 1.7 0.00 0.00 0.00 81 1014.3
20260905044503 78 346 0.0 1.7 0.00 0.00 0.00 81 1014.4
20260905043503 78 246 1.7 1.7 0.00 0.00 0.00 82 1014.5
20260905043003 78 206 0.9 1.7 0.00 0.00 0.00 82 1014.5
20260905042504 78 149 0.9 2.6 0.00 0.00 0.00 83 1014.5
20260905042004 78 194 0.9 2.6 0.00 0.00 0.00 84 1014.6
20260905041505 78 200 0.9 1.7 0.00 0.00 0.00 84 1014.5
20260905041003 78 195 0.0 0.9 0.00 0.00 0.00 84 1014.5
20260905040504 78 251 0.9 1.7 0.00 0.00 0.00 84 1014.5
20260905035004 78 184 0.0 0.0 0.00 0.00 0.00 84 1014.5
20260905034503 78 184 0.9 1.7 0.00 0.00 0.00 84 1014.5
20260905034005 78 252 0.0 0.9 0.00 0.00 0.00 84 1014.4
20260905033504 78 147 0.9 2.6 0.00 0.00 0.00 83 1014.6
20260905032503 78 220 0.9 0.9 0.00 0.00 0.00 83 1014.5
20260905032003 78 229 0.9 1.7 0.00 0.00 0.00 82 1014.5
20260905031503 78 312 0.0 0.9 0.00 0.00 0.00 82 1014.5
20260905031003 78 183 0.9 1.7 0.00 0.00 0.00 82 1014.5
20260905030503 78 280 0.0 0.9 0.00 0.00 0.00 82 1014.5
20260905025504 79 157 0.9 2.6 0.00 0.00 0.00 81 1014.7
20260905025005 79 222 0.9 1.7 0.00 0.00 0.00 81 1014.6
20260905024505 79 258 0.9 1.7 0.00 0.00 0.00 81 1014.7
20260905024004 79 18 0.0 1.7 0.00 0.00 0.00 80 1014.8
20260905023507 80 189 1.7 1.7 0.00 0.00 0.00 80 1014.7
20260905023004 80 235 0.9 1.7 0.00 0.00 0.00 79 1014.8
20260905022004 81 284 1.7 2.6 0.00 0.00 0.00 78 1014.9
20260905021503 81 210 1.7 2.6 0.00 0.00 0.00 77 1014.8
20260905021003 82 219 0.0 0.9 0.00 0.00 0.00 77 1014.8
20260905020503 82 174 1.7 2.6 0.00 0.00 0.00 76 1014.7
20260905020003 83 197 0.9 1.7 0.00 0.00 0.00 75 1014.5
20260905015504 83 112 0.9 5.2 0.00 0.00 0.00 73 1014.4
20260905015004 84 219 0.9 5.2 0.00 0.00 0.00 71 1014.3
20260905014504 84 23 0.0 0.9 0.00 0.00 0.00 69 1014.4
20260905013503 85 266 0.9 1.7 0.00 0.00 0.00 68 1014.5
20260905013005 85 28 1.7 1.7 0.00 0.00 0.00 67 1014.4
20260905012003 85 233 1.7 4.3 0.00 0.00 0.00 65 1014.7
20260905011504 85 32 1.7 1.7 0.00 0.00 0.00 64 1014.7
20260905011003 85 38 0.9 1.7 0.00 0.00 0.00 69 1014.3
20260905010505 85 87 0.9 0.9 0.00 0.00 0.00 67 1013.9
20260905005504 86 89 0.9 0.9 0.00 0.00 0.00 64 1013.1
20260905005004 86 19 0.9 1.7 0.00 0.00 0.00 64 1012.7
20260905004504 87 55 0.9 1.7 0.00 0.00 0.00 64 1012.3
20260905004005 87 304 0.9 2.6 0.00 0.00 0.00 64 1012.0
20260905003504 87 351 0.9 4.3 0.00 0.00 0.00 64 1011.9
20260905003004 87 293 0.9 2.6 0.00 0.00 0.00 64 1012.0
20260905002504 88 315 0.9 2.6 0.00 0.00 0.00 63 1012.0
20260905002004 88 101 0.9 5.2 0.00 0.00 0.00 63 1012.1
20260905001005 88 37 1.7 6.1 0.00 0.00 0.00 64 1012.2
20260905000505 88 206 1.7 5.2 0.00 0.00 0.00 66 1012.2